User: anonymous   Login
Location: Monroe
(41.9160°N, 83.3980°W)
Time: 08:56:18
(UTC-04:00)
Language:

deb Explorer IX - Orbit

View from above orbital plane
View from above orbital plane
View from above satellite
View from above satellite

Ground track
Ground track

The orbit data is extracted from the following two-line orbital elements,

1 00085U 61004C   16145.94955231  .00004002  00000-0  93300-3 0  9993
2 00085  38.7727   8.1830 0404892   1.2946 358.8764 14.15257319720219
Epoch (UTC): 24 May 2016 22:47:21
Eccentricity: 0.0404892
inclination: 38.7727°
perigee height: 549 km
apogee height: 1134 km
right ascension of ascending node: 8.1830°
argument of perigee: 1.2946°
revolutions per day: 14.15257319
mean anomaly at epoch: 358.8764°
orbit number at epoch: 72021

The dashed part of the orbit path shows where the satellite is in the earth's shadow,  

DLR